419  
NZUS99 KIND 240709  
HRRIND  
 
WEATHER ROUNDUP FOR INDIANA AND SURROUNDING STATES  
NATIONAL WEATHER SERVICE INDIANAPOLIS IN  
200 AM EST WED JAN 24 2018  
   
..INDIANA
 
 
 
CITY SKY/WX TMP DP RH WIND PRES REMARKS  
INDIANAPOLIS FRZ DRZL 30 28 92 W14 30.18R WCI 19  
EAGLE CREEK CLOUDY 43 27 53 NW9 30.16S  
ZIONSVILLE CLOUDY 29 26 90 NW5 30.16S WCI 24  
MOUNT COMFORT CLOUDY 30 28 93 NW9 30.17R WCI 22  
GREENWOOD CLOUDY 32 29 88 NW6 30.18R WCI 27  
SHELBYVILLE LGT SNOW 31 28 89 NW5 30.17R FOG WCI 26  

 
 
CITY SKY/WX TMP DP RH WIND PRES REMARKS  
LAFAYETTE CLOUDY 30 27 88 NW7 30.17F WCI 23  
FRANKFORT CLOUDY 32 29 88 NW6 30.18R WCI 26  
CRAWFORDSVILLE CLOUDY 28 28 100 MISG 30.16S  
MUNCIE CLOUDY 32 25 75 W12 30.14R WCI 23  
GREENCASTLE CLOUDY 30 27 86 CALM 30.19S  
TERRE HAUTE CLOUDY 31 25 78 W12 30.22R WCI 22  
BLOOMINGTON CLOUDY 31 27 85 NW10 30.19S WCI 22  
BEDFORD CLOUDY 32 28 86 W7 30.20R WCI 26  
SEYMOUR CLOUDY 34 30 86 W3 30.20S  
NORTH VERNON CLOUDY 30 28 93 W6 30.19R FOG WCI 24  

 
 
CITY SKY/WX TMP DP RH WIND PRES REMARKS  
GARY CLOUDY 30 23 74 W6 30.17S WCI 24  
VALPARAISO CLOUDY 30 24 78 NW7 30.15F WCI 23  
LA PORTE CLOUDY 29 24 81 W8 30.15S WCI 21  
MICHIGAN CITY CLOUDY 30 27 86 NW6 30.16S WCI 24  
SOUTH BEND CLOUDY 29 25 85 W9 30.13R WCI 20  
GOSHEN CLOUDY 31 25 78 NW13 30.12R WCI 21  
KENDALLVILLE CLOUDY 29 24 82 NW8 30.10R WCI 21  
AUBURN CLOUDY N/A N/A N/A NW8 30.11R  
RENSSELAER CLOUDY 30 25 80 NW6 30.17R WCI 24  
KNOX CLOUDY 30 27 86 W8 30.15S WCI 23  
ROCHESTER MOCLDY 32 28 86 W9 30.14F WCI 24  
WARSAW CLOUDY 30 28 93 W9 30.12R WCI 22  
FORT WAYNE CLOUDY 32 27 81 W9 30.12R WCI 24  
MONTICELLO CLOUDY 29 25 83 W8 30.17R WCI 21  
LOGANSPORT CLOUDY 30 27 86 W10 30.16S WCI 21  
HUNTINGTON CLOUDY 30 27 88 W6 30.13R WCI 24  
MARION CLOUDY 29 27 90 W13 30.15R WCI 19  
RICHMOND CLOUDY 30 28 93 W13 30.13R WCI 20  
BATESVILLE N/A N/A N/A N/A MISG N/A  
WASHINGTON CLOUDY 32 27 81 W7 30.25R WCI 26  
FRENCH LICK CLOUDY 32 32 100 W7 30.22S WCI 26  
MADISON CLOUDY 32 30 93 W8 30.21R WCI 25  
HUNTINGBURG CLOUDY 33 29 85 NW6 30.25S WCI 28  
EVANSVILLE CLOUDY 34 27 75 W7G18 30.26F WCI 28  

 
   
..ILLINOIS
 
 
 
CITY SKY/WX TMP DP RH WIND PRES REMARKS  
CHICAGO CLOUDY 28 21 75 NW8 30.15S WCI 20  
MOLINE CLOUDY 26 18 71 W8 30.21S WCI 18  
ROCKFORD FLURRIES 27 22 81 W7 30.18R WCI 19  
KANKAKEE DRIZZLE N/A N/A N/A W15 30.19R  
PEORIA CLOUDY 28 20 71 NW8 30.22S WCI 20  
BLOOMINGTON CLOUDY 27 22 81 NW8 30.20S WCI 19  
CHAMPAIGN CLOUDY 30 25 81 W13 30.20S WCI 20  
RANTOUL CLOUDY 31 26 83 W13 30.19S WCI 21  
DANVILLE CLOUDY 28 26 91 W9 30.17S WCI 20  
QUINCY CLOUDY 27 21 78 W7 30.24S WCI 19  
SPRINGFIELD CLOUDY 30 24 78 NW7 30.24R WCI 23  
DECATUR CLOUDY 29 22 75 W10 30.22R WCI 20  
MATTOON CLOUDY 29 24 82 W8 30.21S WCI 21  
PARIS CLOUDY 30 27 86 W13 30.22S WCI 20  
EFFINGHAM CLOUDY 32 26 78 W7 30.25F WCI 26  
ROBINSON CLOUDY 31 26 84 NW14 30.25S WCI 20  
OLNEY CLOUDY 32 27 83 NW5 30.25F WCI 27  
LAWRENCEVILLE CLOUDY 33 26 75 W9 30.25S WCI 25  
MOUNT VERNON CLOUDY 34 26 72 NW3 30.25F  
FAIRFIELD CLOUDY 33 28 82 CALM 30.24F  
MOUNT CARMEL CLOUDY 32 28 84 W6 30.26S WCI 27  
CARMI CLOUDY 34 28 77 W6 30.25F WCI 29  

 
   
..KENTUCKY
 
 
 
CITY SKY/WX TMP DP RH WIND PRES REMARKS  
LOUISVILLE DRIZZLE 34 29 82 W9 30.23R WCI 27  
PADUCAH FAIR 29 25 85 SW3 30.26F  
OWENSBORO LGT RAIN 34 29 82 W5 30.27S WCI 30  
FORT KNOX CLOUDY 33 28 84 W7 30.22R WCI 26  
LEXINGTON CLOUDY 33 26 75 W9 30.20R WCI 25  
BOWLING GREEN CLOUDY 37 28 70 VRB3 30.27S  
JACKSON LGT SNOW 32 30 92 W10G21 30.15R FOG WCI 24  

 
   
..OHIO
 
 
 
CITY SKY/WX TMP DP RH WIND PRES REMARKS  
CINCINNATI CLOUDY 32 28 85 NW16 30.15R WCI 21  
DAYTON CLOUDY 30 28 92 W14 30.12R WCI 19  
TOLEDO CLOUDY 30 22 72 NW13 30.08R WCI 20  
DEFIANCE CLOUDY 31 23 72 NW13 30.10R WCI 21  
FINDLAY CLOUDY 31 22 69 NW15 30.07R WCI 20  
LIMA CLOUDY 30 25 81 NW12 30.09R WCI 20  
WRIGHT-PAT AFB CLOUDY 31 25 78 W10 30.12R WCI 22  
COLUMBUS FLURRIES 32 27 81 W14 30.07R WCI 22  
CLEVELAND CLOUDY 31 25 78 NW15 30.04R WCI 20  

 
   
..MICHIGAN
 
 
 
CITY SKY/WX TMP DP RH WIND PRES REMARKS  
DETROIT CLOUDY 29 20 69 NW16 30.06R WCI 17  
GRAND RAPIDS CLOUDY 27 18 69 NW14 30.09R WCI 16  
LANSING CLOUDY 26 20 77 NW9 30.07R WCI 17  
KALAMAZOO CLOUDY 29 21 72 NW9 30.10R WCI 20  
BATTLE CREEK CLOUDY 27 20 75 N10 30.09R WCI 17  
MARSHALL CLOUDY 27 19 72 NW8 30.08R WCI 19  
JACKSON CLOUDY 27 19 72 NW9 30.06R WCI 18  
BENTON HARBOR CLOUDY 31 22 69 VRB6 30.13R WCI 25  
COLDWATER CLOUDY 29 22 75 NW8G17 30.09R WCI 21  
HILLSDALE CLOUDY 28 19 69 NW13 30.06R WCI 18  

 
   
..OTHER LOCATIONS
 
 
 
CITY SKY/WX TMP DP RH WIND PRES REMARKS  
SAINT LOUIS MO CLOUDY 32 24 72 W9 30.25S WCI 24  
CAPE GIRARDEAU FAIR 28 25 88 W3 30.27F  
MILWAUKEE WI CLOUDY 28 23 81 NW6 30.14S WCI 22  
NASHVILLE TN CLOUDY 38 26 62 NW12 30.27F WCI 30  

 
 
 
 
CLICK HERE TO GO TO PREVIOUS BULLETINS.

The Nexlab IN Page Main Text Page